Location: Grodziska
(50.8436°N, 19.7452°E)
Time: 10:24:19
(UTC+00:00)

Daily predictions for brighter satellites

Satellite Brightness Start Highest point End
(mag) Time Altitude Azimuth Time Altitude Azimuth Time Altitude Azimuth
NOSS 3-3 (A) 3.9 18:55:41 10° SSW 19:00:37 48° ESE 19:06:30 10° NE
Cosmos 909 Rocket 4.3 18:55:24 10° S 19:01:24 47° ESE 19:07:33 10° NE
ISS -3.8 18:58:57 10° WSW 19:02:17 84° SSE 19:05:39 10° ENE
Sich 1 Rocket 4.2 18:58:00 10° SSW 19:02:18 60° WNW 19:06:40 10° N
SL-08 R/B 3.5 19:01:00 10° NNE 19:05:45 54° E 19:10:23 10° S
Cosmos 1437 Rocket 4.1 19:03:33 10° SE 19:06:06 19° E 19:08:41 10° NE
Cosmos 1452 Rocket 3.8 19:02:10 10° SSW 19:07:23 74° WNW 19:12:38 10° NNE
Cosmos 1626 Rocket 4.0 19:05:11 10° N 19:09:24 46° ENE 19:13:37 10° SSE
Cosmos 1607 3.9 19:06:53 10° SW 19:13:03 83° SE 19:19:22 10° NE
Cosmos 2322 Rocket 3.1 19:08:07 10° NNW 19:13:23 38° NE 19:18:38 10° ESE
Terra 2.3 19:09:09 10° S 19:13:47 61° WSW 19:18:28 10° NNW
Cosmos 2237 4.4 19:08:55 10° NNW 19:14:41 78° WSW 19:20:24 10° SSE
Cosmos 2061 Rocket 4.1 19:08:36 10° S 19:14:42 60° E 19:20:53 10° NNE
Cosmos 1743 3.4 19:12:06 10° NNW 19:14:58 39° W 19:17:47 10° SSW
Cosmos 1302 Rocket 4.0 19:11:08 10° SSW 19:16:18 86° ESE 19:21:32 10° NNE
Cosmos 2151 3.5 19:14:25 10° N 19:18:18 40° ENE 19:22:05 10° SE
Cosmos 2082 Rocket 2.2 19:12:51 10° SSW 19:18:34 81° ESE 19:24:18 10° NNE
Cosmos 2369 4.1 19:15:05 10° NW 19:20:44 64° WSW 19:26:23 10° SSE
ADEOS 4.0 19:16:19 10° S 19:21:29 65° WSW 19:26:42 10° NNW
Helios 1A Rocket 3.1 19:20:32 10° N 19:23:37 54° WNW 19:26:41 10° SSW
Cosmos 1802 Rocket 4.4 19:18:50 10° SSW 19:24:58 69° WNW 19:31:07 10° N
MOS 1-B 4.4 19:26:14 10° SSE 19:32:03 86° WSW 19:37:54 10° NNW
NOSS 3-3 (C) 3.7 19:27:12 10° SSW 19:32:23 65° SE 19:38:37 10° NE
Cosmos 1455 Rocket 4.2 19:32:44 10° SSW 19:36:58 46° WNW 19:41:13 10° N
CZ-4B R/B 2.8 19:35:01 14° SE 19:37:43 49° ENE 19:41:07 10° N
USA 306 2.5 19:35:21 10° W 19:38:24 48° NNW 19:40:26 10° ENE
Okean O Rocket 1.8 19:34:32 10° S 19:38:49 69° WSW 19:43:08 10° NNW
Cosmos 2278 3.9 19:33:50 10° NNW 19:39:34 69° ENE 19:44:30 14° SE
Cosmos 2228 3.5 19:39:04 10° SSW 19:43:06 57° WNW 19:47:10 10° N
USA 186 1.9 19:40:57 11° S 19:43:30 55° W 19:46:14 10° NNW
SL-16 R/B 2.2 19:38:26 10° NNW 19:44:09 89° ENE 19:49:05 14° SSE
NOSS 3-4 (A) 3.9 19:37:45 10° NW 19:44:18 75° NE 19:51:14 13° SE
NOSS 3-4 (C) 3.9 19:38:23 10° NW 19:44:57 74° NE 19:51:53 13° SE
Cosmos 1805 3.6 19:44:26 10° N 19:47:29 35° ENE 19:49:24 18° SE
Okean 1-7 Rocket 4.3 19:45:56 10° N 19:50:09 40° ENE 19:53:16 17° SE
Cosmos 1544 Rocket 3.5 19:46:06 10° S 19:50:26 74° E 19:54:45 10° NNE
Cosmos 2233 Rocket 4.3 19:45:42 10° SSW 19:51:51 68° WNW 19:58:01 10° N
Cosmos 1891 Rocket 4.5 19:45:54 10° S 19:51:55 64° E 19:57:53 10° NNE
NOSS 3 (A) 4.1 19:52:20 10° NW 19:54:32 68° NE 19:55:59 23° SE
CZ-2C R/B 2.6 19:55:38 22° SE 19:57:00 40° ENE 19:59:38 10° N
Cosmos 1980 Rocket 4.4 19:55:05 10° WNW 19:58:58 19° W 20:02:51 10° SW
COSMOS 2406 3.2 19:53:45 10° SSW 19:59:30 81° ESE 20:05:16 10° NNE
Okean-O 3.5 19:55:32 10° S 19:59:43 45° W 20:03:56 10° NNW
CZ-4 R/B 4.4 20:00:26 10° W 20:00:37 10° W 20:00:49 10° W
Ariane Rocket 3.0 19:58:02 16° SSE 20:02:08 78° ENE 20:07:14 10° NNW
Meteor 1-20 Rocket 4.4 19:59:10 10° NNW 20:04:45 74° W 20:09:56 12° S
SPOT 3 Rocket 3.6 20:01:10 14° SSE 20:05:37 80° WSW 20:10:48 10° NNW
Cosmos 1933 3.1 20:02:11 12° S 20:05:42 82° E 20:09:31 10° NNE
Cosmos 1758 Rocket 4.1 20:02:13 10° NNW 20:06:32 55° W 20:10:37 11° S
Nadezhda 4 Rocket 4.1 20:01:01 10° N 20:07:04 61° ENE 20:11:39 18° SSE
EP 1 4.3 20:06:13 10° NW 20:08:47 65° SW 20:09:55 30° SSE
DNEPR-1 R/B 4.4 20:05:22 10° NW 20:10:48 78° SW 20:15:40 19° SSE
Cosmos 2333 Rocket 2.4 20:06:16 10° NW 20:11:56 66° WSW 20:16:16 18° SSE
Cosmos 1763 Rocket 4.2 20:13:22 19° SSE 20:16:21 35° ESE 20:21:06 10° NE
Cosmos 1825 Rocket 3.6 20:15:27 10° N 20:19:46 63° ENE 20:22:19 24° SSE
Helios 1B rocket 3.9 20:21:14 15° E 20:22:49 19° ENE 20:25:23 10° NNE
Cosmos 1536 4.3 20:20:18 10° NNE 20:23:13 21° ENE 20:24:41 17° E
Cosmos 990 Rocket 4.3 20:18:35 10° NNW 20:23:42 58° ENE 20:26:57 22° SE
Okean 1 3.5 20:22:19 28° SE 20:23:44 43° E 20:27:09 10° NNE
Cosmos 44 4.1 20:19:21 10° NW 20:24:39 51° NE 20:28:39 17° ESE
Cosmos 1953 Rocket 4.1 20:21:36 10° N 20:25:46 43° ENE 20:27:55 24° SE
Cosmos 2360 Rocket 2.2 20:20:12 10° NNW 20:25:55 84° WSW 20:29:39 22° SSE
Cosmos 1461 2.8 20:24:02 10° SW 20:27:44 71° NW 20:31:25 10° NE
Cosmos 1707 3.8 20:28:22 17° E 20:28:22 17° E 20:30:10 10° NE
CZ-4B R/B 3.7 20:25:36 17° S 20:29:08 59° WSW 20:33:57 10° NNW
Cosmos 2026 Rocket 4.4 20:23:25 10° N 20:29:41 54° ENE 20:33:45 22° SE
Cosmos 1602 Rocket 4.1 20:26:31 10° NNW 20:30:44 54° W 20:33:50 17° SSW
CZ-4C R/B 4.2 20:28:07 10° W 20:32:26 30° NNW 20:37:51 10° NE
Cosmos 2333 4.2 20:27:43 10° NNW 20:33:28 87° WSW 20:37:06 24° SSE
GRACE-FO 1 4.4 20:36:05 33° SSE 20:37:30 72° E 20:41:00 10° N
GRACE-FO 2 4.4 20:36:33 33° SSE 20:37:58 73° E 20:41:28 10° N
Cosmos 1777 Rocket 4.2 20:32:47 10° NNW 20:37:59 66° WSW 20:41:10 23° S
Cosmos 2058 Rocket 4.1 20:37:19 25° ESE 20:38:42 30° E 20:42:30 10° NNE
ISS -3.7 20:35:49 10° W 20:39:10 78° N 20:41:23 20° E
Cosmos 2219 Rocket 2.2 20:33:40 10° NNW 20:39:22 81° ENE 20:42:48 25° SE
Cosmos 1437 Rocket 4.0 20:37:14 10° SW 20:40:32 36° WNW 20:43:54 10° N
Cosmos 220 Rocket 4.2 20:36:32 10° SSW 20:40:33 66° WNW 20:44:40 10° NNE
USA 290 2.1 20:39:45 38° S 20:40:44 65° ESE 20:43:52 10° NNE
Helios 1A 3.5 20:42:11 10° NNE 20:45:51 36° E 20:46:48 31° SE
Cosmos 1503 Rocket 4.1 20:41:19 10° NNW 20:46:31 72° WSW 20:49:23 26° S
Cosmos 2098 Rocket 3.4 20:44:22 15° SSW 20:48:17 64° WNW 20:52:23 10° N
DEBRIS 4.0 20:45:00 10° W 20:48:49 80° S 21:02:52 10° E
Cosmos 1076 Rocket 3.4 20:45:13 10° N 20:49:30 89° W 20:51:27 31° S
RESURS DK-1 3.6 20:51:39 10° NNW 20:55:17 32° NE 20:57:22 20° E
ARIANE 5 R/B 4.0 20:54:55 20° ESE 20:57:03 29° ENE 21:00:54 10° N
Cosmos 2322 Rocket 2.8 20:52:08 10° NW 20:57:34 48° WSW 21:00:46 23° S
ALOS 2 4.2 20:56:35 18° ESE 20:58:43 25° ENE 21:02:20 10° N
Cosmos 1464 Rocket 4.2 20:53:51 14° SSW 20:59:11 71° WNW 21:05:23 10° N
Cosmos 1354 Rocket 4.0 20:55:34 10° NNW 21:00:50 78° WSW 21:03:26 30° SSE
Cosmos 2082 Rocket 4.5 20:58:33 10° W 21:03:18 26° NW 21:08:03 10° NNE
USA 306 3.7 21:03:36 10° WNW 21:04:50 19° NW 21:04:50 19° NW
Cosmos 372 Rocket 4.2 21:00:28 10° NNW 21:05:33 59° ENE 21:08:03 29° SE
Cosmos 1606 Rocket 4.1 21:03:17 19° SSW 21:06:14 55° WNW 21:10:29 10° N
Cosmos 1766 2.6 21:09:20 10° N 21:12:33 88° W 21:13:02 62° S
Cosmos 1271 Rocket 3.6 21:12:52 27° E 21:12:52 27° E 21:15:46 10° NNE
Cosmos 1726 Rocket 3.7 21:12:34 26° SSW 21:14:41 60° WNW 21:18:42 10° N
Cosmos 1842 3.7 21:15:02 32° E 21:15:02 32° E 21:17:46 10° NNE
Cosmos 2237 Rocket 3.6 21:10:51 10° NNW 21:15:54 31° NE 21:20:31 12° ESE
Cosmos 540 Rocket 3.4 21:13:16 23° SSW 21:16:35 90° SE 21:21:47 10° NNE
Cosmos 1092 Rocket 3.9 21:10:55 10° N 21:17:07 88° W 21:20:29 29° S
Aureole 1 Rocket 3.9 21:13:23 10° NNW 21:19:05 86° WSW 21:22:39 30° SSE
Meteor 1-26 Rocket 4.1 21:17:24 27° S 21:20:30 88° E 21:26:15 10° NNE
CZ-2C R/B 4.4 21:17:31 11° ESE 21:21:04 22° ENE 21:24:56 10° N
Meteor 2-2 Rocket 4.2 21:23:03 29° S 21:26:03 83° E 21:31:52 10° NNE
Cosmos 1937 Rocket 4.0 21:21:51 10° NNW 21:26:53 50° ENE 21:29:23 27° ESE
COSMOS 2428 2.9 21:21:33 10° NNW 21:27:16 68° ENE 21:30:13 29° SE
SL-16 R/B 4.2 21:23:51 10° WNW 21:27:27 17° W 21:30:55 10° SW
NOSS 0 Rocket 4.3 21:21:35 10° NNW 21:27:42 59° NE 21:31:29 23° SE
Meteor 1-11 Rocket 4.5 21:25:10 10° N 21:30:33 42° ENE 21:33:18 25° ESE
Geosat 3.9 21:27:03 10° NNE 21:32:05 89° SE 21:35:08 24° SSW
Cosmos 468 Rocket 3.9 21:30:32 33° S 21:32:55 73° ESE 21:38:11 10° NNE
Cosmos-2242 3.1 21:34:03 35° SSW 21:35:39 64° WNW 21:39:45 10° N
USA 234 3.8 21:39:45 10° ENE 21:45:40 35° SE 21:47:10 31° SSE
Cosmos 1812 Rocket 4.1 21:48:19 38° SE 21:49:13 43° E 21:53:25 10° NNE
TSX-5 3.6 21:47:09 10° NW 21:50:06 53° WSW 21:50:06 53° WSW
ACS3 Solar Sail 3.8 21:48:08 10° NE 21:50:57 13° E 21:53:46 10° ESE
CZ-2C R/B 4.3 21:47:40 10° NNE 21:52:52 34° E 21:54:49 27° SE
SeaSat 1 4.2 21:49:27 10° E 21:53:31 27° NE 21:57:35 10° NNW
Cosmos 2333 Rocket 4.5 21:53:09 10° WNW 21:55:08 12° W 21:57:06 10° WSW
Helios 1B rocket 2.8 21:55:11 37° WSW 21:55:34 39° W 21:58:53 10° NNW
Cosmos 2279 Rocket 3.9 21:53:17 33° S 21:56:20 87° E 22:02:38 10° N
Meteor 1-14 Rocket 4.1 21:51:33 10° NNW 21:57:08 83° W 21:59:19 38° S
Cosmos 1470 2.3 21:54:51 10° NNW 21:58:08 65° W 21:58:12 64° WSW
Cosmos 1536 3.7 21:55:10 10° NNW 21:58:32 34° W 21:59:12 31° WSW
Cosmos 2221 2.4 21:59:07 54° SSE 21:59:56 72° E 22:04:08 10° NNE
Cosmos 1707 3.9 21:59:51 22° W 22:00:15 22° WNW 22:02:35 10° NNW
Cosmos 1898 Rocket 3.5 21:55:08 10° NNW 22:00:18 71° WSW 22:02:03 41° S
Cosmos 1634 Rocket 4.2 21:57:45 26° SSW 22:01:17 65° WNW 22:07:29 10° N
CZ-2C R/B 3.6 21:58:20 10° NNE 22:02:50 88° WNW 22:04:14 45° SSW
Cosmos 2297 Rocket 2.9 22:01:44 31° SE 22:03:04 36° ESE 22:08:10 10° NE
Cosmos 44 4.2 22:00:45 10° NW 22:05:43 38° WSW 22:06:56 33° SSW
Cosmos 2360 Rocket 4.2 22:05:44 10° WNW 22:09:01 16° W 22:11:23 12° SW
Cosmos 2322 3.9 22:06:16 10° NW 22:11:51 57° WSW 22:13:46 38° S
ISS -2.2 22:12:40 10° W 22:14:19 25° W 22:14:19 25° W
Cosmos 2058 Rocket 4.4 22:14:25 21° WSW 22:16:31 32° WNW 22:20:26 10° N
GP-B 3.2 22:13:31 10° N 22:17:53 65° E 22:18:52 49° SSE
SAR-Lupe-2 3.3 22:20:00 71° W 22:20:00 71° W 22:23:19 10° NNW
Cosmos 2219 Rocket 3.9 22:18:40 10° NW 22:22:37 20° W 22:24:29 17° SW
Cosmos 2266 Rocket 3.9 22:18:13 10° N 22:24:17 85° W 22:26:50 37° S
Cosmos 1975 3.2 22:21:36 10° NNW 22:25:07 43° W 22:25:24 42° WSW
Cosmos 841 Rocket 3.5 22:28:15 36° SW 22:30:26 78° WNW 22:35:42 10° NNE
RESURS DK-1 3.2 22:29:02 10° NW 22:32:34 33° WSW 22:32:34 33° WSW
ARIANE 5 R/B 3.4 22:32:16 34° SW 22:33:13 38° W 22:37:25 10° NNW
Meteor 1-19 Rocket 4.4 22:32:11 34° SSW 22:34:47 72° WNW 22:40:46 10° N
ALOS 2 3.2 22:33:58 38° SW 22:34:51 44° W 22:39:05 10° NNW
Cosmos 1271 Rocket 4.3 22:46:13 20° W 22:47:02 22° WNW 22:49:45 10° NNW
SL-16 R/B 3.3 22:42:56 10° NNW 22:48:21 42° NE 22:53:43 10° ESE
Lacrosse 4 Rocket 1.7 22:51:57 45° SE 22:52:05 45° ESE 22:56:00 10° NE
Cosmos 1655 Rocket 4.0 22:46:15 10° N 22:52:31 81° E 22:55:28 34° SSE
Cosmos 1766 Rocket 3.4 22:50:06 10° NNW 22:54:25 84° W 22:55:19 55° S
PSLV R/B 4.2 22:50:26 10° N 22:54:33 48° WNW 22:55:59 34° WSW
Cosmos 2237 Rocket 2.3 22:54:44 10° NW 23:00:21 62° WSW 23:02:17 39° S
CZ-2C R/B 2.5 22:58:57 41° S 23:00:48 73° WSW 23:06:02 10° NNW
BREEZE-M DEB (TANK) 3.6 22:52:30 10° WSW 23:03:28 85° NNW 23:06:37 10° ENE
Cosmos 1980 3.9 22:58:57 10° NW 23:04:27 54° WSW 23:06:13 39° SSW
Iridium 4 Rocket 3.9 23:04:44 35° SSE 23:07:10 69° E 23:12:59 10° N
COSMOS 2428 4.0 23:06:30 10° NW 23:11:00 24° WSW 23:12:11 23° WSW
Meteor 2-11 Rocket 4.4 23:05:09 10° N 23:11:20 81° E 23:14:22 32° SSE
Cosmos 2227 Rocket 2.6 23:11:04 35° SSE 23:13:03 51° ESE 23:18:33 10° NE
Meteor 2-4 Rocket 3.6 23:11:49 39° SSW 23:13:55 84° WNW 23:19:30 10° NNE
BREEZE-M DEB (TANK) 4.2 23:23:10 22° ESE 23:23:10 22° ESE 23:25:11 10° ESE
Cosmos 2263 Rocket 2.9 23:20:54 29° SSE 23:22:56 40° ESE 23:28:07 10° NE
Cosmos 1151 Rocket 4.0 23:25:13 29° SE 23:26:40 38° E 23:30:41 10° NNE
Cosmos 1238 Rocket 3.4 23:25:54 39° WSW 23:26:52 47° WNW 23:31:07 10° N
USA 234 3.2 23:22:35 10° ENE 23:29:11 89° SSE 23:34:29 17° WSW
SeaSat 1 2.4 23:28:37 37° SSE 23:30:32 70° WSW 23:35:27 10° NW
CZ-2C R/B 3.9 23:27:16 10° N 23:32:47 49° WNW 23:35:48 26° SW
ACS3 Solar Sail 1.8 23:28:23 10° NNE 23:34:22 71° E 23:37:20 31° S
Cosmos 1758 3.0 23:31:04 10° N 23:34:42 79° E 23:35:23 55° SSE
Cosmos 1500 Rocket 4.0 23:30:28 10° N 23:34:52 59° ENE 23:36:52 30° SE
Meteor 1-27 Rocket 4.4 23:32:34 27° SW 23:35:25 47° WNW 23:40:58 10° N
ATLAS 2AS CENTAUR R/B 3.4 23:33:00 10° NW 23:39:39 54° NE 23:46:17 10° ESE
BlueWalker 3 1.6 23:41:17 63° SSE 23:41:24 64° SSE 23:44:54 10° ENE
Cosmos 2297 Rocket 2.9 23:43:30 21° WSW 23:46:59 48° NW 23:52:27 10° NNE
Cosmos 1125 Rocket 3.5 23:42:12 10° NNW 23:47:32 87° ENE 23:50:47 24° SSE
Okean 3 Rocket 3.7 23:43:26 10° NNW 23:47:55 64° W 23:49:21 40° SSW
Landsat 5 4.0 23:46:30 10° N 23:50:26 45° WNW 23:51:40 34° WSW
Nadezhda 2 Rocket 4.4 23:45:39 10° NNW 23:51:47 74° W 23:55:06 29° S
Cosmos 1340 Rocket 2.7 23:48:10 10° N 23:52:01 77° ENE 23:53:20 39° SSE
Cosmos 1842 Rocket 4.1 23:53:33 33° WSW 23:55:01 46° WNW 23:59:17 10° N
